{"data":{"norad_id":59012,"epoch":"2026-09-20T16:41:39.427872Z","epoch_age_seconds":138584,"freshness":"FRESH","line1":"1 59012U 24036Q   26263.69559523  .00000506  00000+0  28076-4 0  9992","line2":"2 59012  53.1587 252.0517 0001367  85.9351 274.1807 15.31699564145185","mean_motion":15.31699564,"eccentricity":0.0001367,"inclination_deg":53.1587,"raan_deg":252.0517,"arg_perigee_deg":85.9351,"mean_anomaly_deg":274.1807,"bstar":2.8076e-5,"rev_number":14518,"period_min":94.013214722048,"perigee_km":469.80505325635,"apogee_km":471.67753658218,"semimajor_km":6848.8782949193,"source":"CELESTRAK","updated_at":"2026-09-21T09:00:34.025826Z"}}